Time,TemperatureF,DewpointF,PressureIn,WindDirection,WindDirectionDegrees,WindSpeedMPH,WindSpeedGustMPH,Humidity,HourlyPrecipIn,Conditions,Clouds,dailyrainin,SoftwareType,DateUTC
2013-05-03 00:01:00,54.6,46.8,30.29,WSW,251,5.0,6.0,75,0.00,,,0.00,Wunderground v.1.15,2013-05-03 04:01:00,
2013-05-03 00:02:00,54.6,46.8,30.29,WSW,246,5.0,6.0,75,0.00,,,0.00,Wunderground v.1.15,2013-05-03 04:02:00,
2013-05-03 00:03:00,54.6,46.8,30.29,WSW,250,5.0,6.0,75,0.00,,,0.00,Wunderground v.1.15,2013-05-03 04:03:00,
2013-05-03 00:08:00,54.4,46.6,30.29,WSW,250,5.0,6.0,75,0.00,,,0.00,Wunderground v.1.15,2013-05-03 04:08:00,
2013-05-03 00:10:00,54.4,47.0,30.29,WSW,252,4.0,5.0,76,0.00,,,0.00,Wunderground v.1.15,2013-05-03 04:10:00,
2013-05-03 00:15:00,54.2,46.4,30.29,WSW,252,5.0,6.0,75,0.00,,,0.00,Wunderground v.1.15,2013-05-03 04:15:00,
2013-05-03 00:21:00,54.1,46.3,30.29,WSW,252,5.0,5.0,75,0.00,,,0.00,Wunderground v.1.15,2013-05-03 04:21:00,
2013-05-03 00:26:00,53.9,46.2,30.29,SW,236,4.0,6.0,75,0.00,,,0.00,Wunderground v.1.15,2013-05-03 04:26:00,
2013-05-03 00:31:00,53.8,46.1,30.29,SW,234,4.0,4.0,75,0.00,,,0.00,Wunderground v.1.15,2013-05-03 04:31:00,
2013-05-03 00:37:00,53.7,46.0,30.29,SW,236,4.0,4.0,75,0.00,,,0.00,Wunderground v.1.15,2013-05-03 04:37:00,
2013-05-03 00:42:00,53.7,46.0,30.29,SW,236,3.0,3.0,75,0.00,,,0.00,Wunderground v.1.15,2013-05-03 04:42:00,
2013-05-03 00:48:00,53.6,45.9,30.29,SW,232,3.0,5.0,75,0.00,,,0.00,Wunderground v.1.15,2013-05-03 04:48:00,
2013-05-03 00:54:00,53.5,45.8,30.29,SW,236,3.0,4.0,75,0.00,,,0.00,Wunderground v.1.15,2013-05-03 04:54:00,
2013-05-03 00:59:00,53.5,45.8,30.29,SW,227,3.0,5.0,75,0.00,,,0.00,Wunderground v.1.15,2013-05-03 04:59:00,
2013-05-03 01:05:00,53.3,45.2,30.29,SW,235,3.0,4.0,74,0.00,,,0.00,Wunderground v.1.15,2013-05-03 05:05:00,
2013-05-03 01:10:00,53.3,45.2,30.29,SW,224,3.0,4.0,74,0.00,,,0.00,Wunderground v.1.15,2013-05-03 05:10:00,
2013-05-03 01:16:00,53.2,45.5,30.28,SW,235,3.0,4.0,75,0.00,,,0.00,Wunderground v.1.15,2013-05-03 05:16:00,
2013-05-03 01:21:00,53.0,45.6,30.28,SW,235,3.0,4.0,76,0.00,,,0.00,Wunderground v.1.15,2013-05-03 05:21:00,
2013-05-03 01:27:00,52.9,45.9,30.28,SW,227,3.0,4.0,77,0.00,,,0.00,Wunderground v.1.15,2013-05-03 05:27:00,
2013-05-03 01:32:00,52.7,46.0,30.28,SW,234,3.0,4.0,78,0.00,,,0.00,Wunderground v.1.15,2013-05-03 05:32:00,
2013-05-03 01:38:00,52.5,45.8,30.28,SW,235,2.0,4.0,78,0.00,,,0.00,Wunderground v.1.15,2013-05-03 05:38:00,
2013-05-03 01:43:00,52.3,45.6,30.28,SW,235,2.0,3.0,78,0.00,,,0.00,Wunderground v.1.15,2013-05-03 05:43:00,
2013-05-03 01:48:00,52.2,45.2,30.28,SW,220,2.0,4.0,77,0.00,,,0.00,Wunderground v.1.15,2013-05-03 05:48:00,
2013-05-03 01:54:00,52.2,45.2,30.28,WSW,240,3.0,6.0,77,0.00,,,0.00,Wunderground v.1.15,2013-05-03 05:54:00,
2013-05-03 01:59:00,52.1,44.8,30.28,SW,225,3.0,6.0,76,0.00,,,0.00,Wunderground v.1.15,2013-05-03 05:59:00,
2013-05-03 02:05:00,52.0,44.7,30.28,SW,219,2.0,3.0,76,0.00,,,0.00,Wunderground v.1.15,2013-05-03 06:05:00,
2013-05-03 02:11:00,51.9,44.6,30.28,SW,235,2.0,2.0,76,0.00,,,0.00,Wunderground v.1.15,2013-05-03 06:11:00,
2013-05-03 02:17:00,51.7,44.4,30.28,SSW,207,2.0,3.0,76,0.00,,,0.00,Wunderground v.1.15,2013-05-03 06:17:00,
2013-05-03 02:22:00,51.5,44.5,30.29,SSW,207,2.0,2.0,77,0.00,,,0.00,Wunderground v.1.15,2013-05-03 06:22:00,
2013-05-03 02:28:00,51.3,44.3,30.29,SSW,207,1.0,3.0,77,0.00,,,0.00,Wunderground v.1.15,2013-05-03 06:28:00,
2013-05-03 02:34:00,51.1,44.5,30.29,SSW,207,1.0,2.0,78,0.00,,,0.00,Wunderground v.1.15,2013-05-03 06:34:00,
2013-05-03 02:40:00,50.9,44.6,30.29,SW,220,1.0,1.0,79,0.00,,,0.00,Wunderground v.1.15,2013-05-03 06:40:00,
2013-05-03 02:45:00,50.8,44.5,30.29,SW,217,2.0,3.0,79,0.00,,,0.00,Wunderground v.1.15,2013-05-03 06:45:00,
2013-05-03 02:51:00,50.7,44.1,30.29,SW,216,1.0,1.0,78,0.00,,,0.00,Wunderground v.1.15,2013-05-03 06:51:00,
2013-05-03 02:56:00,50.6,44.0,30.29,SSW,208,1.0,2.0,78,0.00,,,0.00,Wunderground v.1.15,2013-05-03 06:56:00,
2013-05-03 03:02:00,50.5,43.6,30.29,SSW,199,1.0,3.0,77,0.00,,,0.00,Wunderground v.1.15,2013-05-03 07:02:00,
2013-05-03 03:08:00,50.4,43.1,30.29,SW,229,2.0,3.0,76,0.00,,,0.00,Wunderground v.1.15,2013-05-03 07:08:00,
2013-05-03 03:14:00,50.3,42.7,30.29,SSW,209,2.0,2.0,75,0.00,,,0.00,Wunderground v.1.15,2013-05-03 07:14:00,
2013-05-03 03:20:00,50.3,42.7,30.30,SW,227,3.0,3.0,75,0.00,,,0.00,Wunderground v.1.15,2013-05-03 07:20:00,
2013-05-03 03:26:00,50.3,43.0,30.29,SW,223,3.0,4.0,76,0.00,,,0.00,Wunderground v.1.15,2013-05-03 07:26:00,
2013-05-03 03:32:00,50.1,42.8,30.30,WSW,241,3.0,4.0,76,0.00,,,0.00,Wunderground v.1.15,2013-05-03 07:32:00,
2013-05-03 03:38:00,50.0,42.7,30.30,SW,225,3.0,4.0,76,0.00,,,0.00,Wunderground v.1.15,2013-05-03 07:38:00,
2013-05-03 03:44:00,49.8,42.5,30.30,SSW,210,3.0,3.0,76,0.00,,,0.00,Wunderground v.1.15,2013-05-03 07:44:00,
2013-05-03 03:50:00,49.6,42.7,30.30,SW,230,3.0,3.0,77,0.00,,,0.00,Wunderground v.1.15,2013-05-03 07:50:00,
2013-05-03 03:56:00,49.5,42.6,30.30,SW,216,2.0,3.0,77,0.00,,,0.00,Wunderground v.1.15,2013-05-03 07:56:00,
2013-05-03 04:02:00,49.3,42.7,30.30,SW,214,1.0,1.0,78,0.00,,,0.00,Wunderground v.1.15,2013-05-03 08:02:00,
2013-05-03 04:07:00,49.1,42.9,30.30,SSW,209,1.0,3.0,79,0.00,,,0.00,Wunderground v.1.15,2013-05-03 08:07:00,
2013-05-03 04:13:00,48.8,42.6,30.31,SSW,203,1.0,1.0,79,0.00,,,0.00,Wunderground v.1.15,2013-05-03 08:13:00,
2013-05-03 04:19:00,48.6,42.7,30.31,SSW,196,1.0,3.0,80,0.00,,,0.00,Wunderground v.1.15,2013-05-03 08:19:00,
2013-05-03 04:25:00,48.5,43.3,30.31,SSW,192,1.0,3.0,82,0.00,,,0.00,Wunderground v.1.15,2013-05-03 08:25:00,
2013-05-03 04:31:00,48.3,43.1,30.31,SSW,207,1.0,3.0,82,0.00,,,0.00,Wunderground v.1.15,2013-05-03 08:31:00,
2013-05-03 04:37:00,48.2,43.3,30.31,SSW,192,1.0,4.0,83,0.00,,,0.00,Wunderground v.1.15,2013-05-03 08:37:00,
2013-05-03 04:42:00,48.1,43.2,30.31,South,190,1.0,3.0,83,0.00,,,0.00,Wunderground v.1.15,2013-05-03 08:42:00,
2013-05-03 04:48:00,47.9,43.0,30.32,SSW,200,1.0,3.0,83,0.00,,,0.00,Wunderground v.1.15,2013-05-03 08:48:00,
2013-05-03 04:53:00,47.8,42.9,30.32,South,186,2.0,3.0,83,0.00,,,0.00,Wunderground v.1.15,2013-05-03 08:53:00,
2013-05-03 04:59:00,47.7,42.8,30.32,South,170,2.0,4.0,83,0.00,,,0.00,Wunderground v.1.15,2013-05-03 08:59:00,
2013-05-03 05:05:00,47.8,43.2,30.32,SSE,152,2.0,6.0,84,0.00,,,0.00,Wunderground v.1.15,2013-05-03 09:05:00,
2013-05-03 05:11:00,47.8,43.5,30.32,SSE,156,2.0,2.0,85,0.00,,,0.00,Wunderground v.1.15,2013-05-03 09:11:00,
2013-05-03 05:16:00,47.7,43.4,30.32,South,178,3.0,6.0,85,0.00,,,0.00,Wunderground v.1.15,2013-05-03 09:16:00,
2013-05-03 05:22:00,47.7,43.4,30.32,SSW,193,4.0,5.0,85,0.00,,,0.00,Wunderground v.1.15,2013-05-03 09:22:00,
2013-05-03 05:28:00,47.6,43.0,30.32,SSE,163,4.0,7.0,84,0.00,,,0.00,Wunderground v.1.15,2013-05-03 09:28:00,
2013-05-03 05:33:00,47.5,42.9,30.32,SE,137,4.0,5.0,84,0.00,,,0.00,Wunderground v.1.15,2013-05-03 09:33:00,
2013-05-03 05:39:00,47.4,42.5,30.33,SSE,162,4.0,6.0,83,0.00,,,0.00,Wunderground v.1.15,2013-05-03 09:39:00,
2013-05-03 05:45:00,47.4,42.2,30.33,SSE,147,5.0,9.0,82,0.00,,,0.00,Wunderground v.1.15,2013-05-03 09:45:00,
2013-05-03 05:51:00,47.3,41.4,30.33,SE,130,4.0,4.0,80,0.00,,,0.00,Wunderground v.1.15,2013-05-03 09:51:00,
2013-05-03 05:56:00,47.3,41.1,30.33,SE,130,4.0,6.0,79,0.00,,,0.00,Wunderground v.1.15,2013-05-03 09:56:00,
2013-05-03 06:02:00,47.3,40.8,30.33,South,184,4.0,4.0,78,0.00,,,0.00,Wunderground v.1.15,2013-05-03 10:02:00,
2013-05-03 06:08:00,47.2,40.7,30.33,SSE,147,4.0,4.0,78,0.00,,,0.00,Wunderground v.1.15,2013-05-03 10:08:00,
2013-05-03 06:13:00,47.2,41.0,30.33,SSE,167,4.0,7.0,79,0.00,,,0.00,Wunderground v.1.15,2013-05-03 10:13:00,
2013-05-03 06:18:00,47.1,40.6,30.34,SE,131,5.0,7.0,78,0.00,,,0.00,Wunderground v.1.15,2013-05-03 10:18:00,
2013-05-03 06:24:00,47.2,40.7,30.34,ESE,110,4.0,5.0,78,0.00,,,0.00,Wunderground v.1.15,2013-05-03 10:24:00,
2013-05-03 06:29:00,47.3,40.8,30.34,ESE,113,5.0,10.0,78,0.00,,,0.00,Wunderground v.1.15,2013-05-03 10:29:00,
2013-05-03 06:35:00,47.4,40.9,30.34,ESE,117,6.0,6.0,78,0.00,,,0.00,Wunderground v.1.15,2013-05-03 10:35:00,
2013-05-03 06:41:00,47.5,41.0,30.34,SE,136,6.0,6.0,78,0.00,,,0.00,Wunderground v.1.15,2013-05-03 10:41:00,
2013-05-03 06:46:00,47.5,41.0,30.35,SE,136,6.0,6.0,78,0.00,,,0.00,Wunderground v.1.15,2013-05-03 10:46:00,
2013-05-03 06:52:00,47.6,41.1,30.35,SE,138,5.0,8.0,78,0.00,,,0.00,Wunderground v.1.15,2013-05-03 10:52:00,
2013-05-03 06:58:00,47.6,41.1,30.35,SE,126,4.0,10.0,78,0.00,,,0.00,Wunderground v.1.15,2013-05-03 10:58:00,
2013-05-03 07:04:00,47.8,41.6,30.35,ESE,119,5.0,9.0,79,0.00,,,0.00,Wunderground v.1.15,2013-05-03 11:04:00,
2013-05-03 07:09:00,47.9,41.7,30.35,SSE,165,5.0,9.0,79,0.00,,,0.00,Wunderground v.1.15,2013-05-03 11:09:00,
2013-05-03 07:15:00,48.2,42.0,30.35,ESE,116,5.0,10.0,79,0.00,,,0.00,Wunderground v.1.15,2013-05-03 11:15:00,
2013-05-03 07:21:00,48.2,41.7,30.35,SSE,150,5.0,11.0,78,0.00,,,0.00,Wunderground v.1.15,2013-05-03 11:21:00,
2013-05-03 07:26:00,48.2,41.7,30.35,ESE,115,5.0,11.0,78,0.00,,,0.00,Wunderground v.1.15,2013-05-03 11:26:00,
2013-05-03 07:31:00,48.2,42.0,30.35,SSE,161,4.0,5.0,79,0.00,,,0.00,Wunderground v.1.15,2013-05-03 11:31:00,
2013-05-03 07:37:00,48.1,41.6,30.35,SE,130,4.0,8.0,78,0.00,,,0.00,Wunderground v.1.15,2013-05-03 11:37:00,
2013-05-03 07:43:00,48.0,41.5,30.36,SE,146,5.0,6.0,78,0.00,,,0.00,Wunderground v.1.15,2013-05-03 11:43:00,
2013-05-03 07:48:00,48.1,41.6,30.36,SE,124,4.0,6.0,78,0.00,,,0.00,Wunderground v.1.15,2013-05-03 11:48:00,
2013-05-03 07:53:00,48.4,41.9,30.36,ESE,121,4.0,6.0,78,0.00,,,0.00,Wunderground v.1.15,2013-05-03 11:53:00,
2013-05-03 07:58:00,49.0,41.8,30.36,ESE,116,5.0,11.0,76,0.00,,,0.00,Wunderground v.1.15,2013-05-03 11:58:00,
2013-05-03 08:03:00,49.7,42.1,30.36,SE,130,6.0,10.0,75,0.00,,,0.00,Wunderground v.1.15,2013-05-03 12:03:00,
2013-05-03 08:09:00,50.3,42.0,30.36,SSE,158,6.0,10.0,73,0.00,,,0.00,Wunderground v.1.15,2013-05-03 12:09:00,
2013-05-03 08:15:00,50.7,42.0,30.36,ESE,119,7.0,11.0,72,0.00,,,0.00,Wunderground v.1.15,2013-05-03 12:15:00,
2013-05-03 08:20:00,51.1,42.0,30.36,SE,146,7.0,7.0,71,0.00,,,0.00,Wunderground v.1.15,2013-05-03 12:20:00,
2013-05-03 08:25:00,51.5,41.7,30.36,ESE,109,7.0,12.0,69,0.00,,,0.00,Wunderground v.1.15,2013-05-03 12:25:00,
2013-05-03 08:31:00,51.9,42.0,30.36,East,98,6.0,6.0,69,0.00,,,0.00,Wunderground v.1.15,2013-05-03 12:31:00,
2013-05-03 08:37:00,52.3,41.7,30.36,SSE,151,6.0,13.0,67,0.00,,,0.00,Wunderground v.1.15,2013-05-03 12:37:00,
2013-05-03 08:43:00,52.6,42.7,30.36,SE,133,6.0,8.0,69,0.00,,,0.00,Wunderground v.1.15,2013-05-03 12:43:00,
2013-05-03 08:49:00,53.2,43.3,30.36,SE,125,4.0,8.0,69,0.00,,,0.00,Wunderground v.1.15,2013-05-03 12:49:00,
2013-05-03 08:54:00,53.7,43.4,30.36,ESE,117,4.0,8.0,68,0.00,,,0.00,Wunderground v.1.15,2013-05-03 12:54:00,
2013-05-03 09:00:00,54.1,43.4,30.36,SSE,148,4.0,4.0,67,0.00,,,0.00,Wunderground v.1.15,2013-05-03 13:00:00,
2013-05-03 09:06:00,54.3,42.8,30.36,SSE,160,5.0,11.0,65,0.00,,,0.00,Wunderground v.1.15,2013-05-03 13:06:00,
2013-05-03 09:12:00,54.2,42.3,30.36,East,94,7.0,10.0,64,0.00,,,0.00,Wunderground v.1.15,2013-05-03 13:12:00,
2013-05-03 09:17:00,54.3,42.8,30.36,SSE,147,6.0,10.0,65,0.00,,,0.00,Wunderground v.1.15,2013-05-03 13:17:00,
2013-05-03 09:23:00,54.7,43.6,30.36,SSE,166,5.0,7.0,66,0.00,,,0.00,Wunderground v.1.15,2013-05-03 13:23:00,
2013-05-03 09:29:00,55.1,43.1,30.36,SE,140,5.0,7.0,64,0.00,,,0.00,Wunderground v.1.15,2013-05-03 13:29:00,
2013-05-03 09:34:00,55.6,43.2,30.36,SE,130,5.0,7.0,63,0.00,,,0.00,Wunderground v.1.15,2013-05-03 13:34:00,
2013-05-03 09:40:00,56.0,41.9,30.36,East,86,6.0,9.0,59,0.00,,,0.00,Wunderground v.1.15,2013-05-03 13:40:00,
2013-05-03 09:45:00,56.2,42.1,30.36,South,179,6.0,15.0,59,0.00,,,0.00,Wunderground v.1.15,2013-05-03 13:45:00,
2013-05-03 09:50:00,56.6,42.0,30.36,ESE,114,6.0,9.0,58,0.00,,,0.00,Wunderground v.1.15,2013-05-03 13:50:00,
2013-05-03 09:56:00,57.1,42.0,30.36,SSE,151,6.0,9.0,57,0.00,,,0.00,Wunderground v.1.15,2013-05-03 13:56:00,
2013-05-03 10:01:00,57.3,41.3,30.36,SE,129,5.0,7.0,55,0.00,,,0.00,Wunderground v.1.15,2013-05-03 14:01:00,
2013-05-03 10:06:00,57.5,41.9,30.36,SE,142,5.0,11.0,56,0.00,,,0.00,Wunderground v.1.15,2013-05-03 14:06:00,
2013-05-03 10:12:00,57.8,42.7,30.36,SSW,193,4.0,5.0,57,0.00,,,0.00,Wunderground v.1.15,2013-05-03 14:12:00,
2013-05-03 10:17:00,58.2,42.1,30.37,South,185,4.0,6.0,55,0.00,,,0.00,Wunderground v.1.15,2013-05-03 14:17:00,
2013-05-03 10:23:00,58.3,41.7,30.37,SSW,194,5.0,7.0,54,0.00,,,0.00,Wunderground v.1.15,2013-05-03 14:23:00,
2013-05-03 10:28:00,58.4,42.3,30.36,SE,130,5.0,9.0,55,0.00,,,0.00,Wunderground v.1.15,2013-05-03 14:28:00,
2013-05-03 10:34:00,58.7,43.0,30.36,SE,132,4.0,5.0,56,0.00,,,0.00,Wunderground v.1.15,2013-05-03 14:34:00,
2013-05-03 10:40:00,59.3,43.1,30.36,SE,144,4.0,6.0,55,0.00,,,0.00,Wunderground v.1.15,2013-05-03 14:40:00,
2013-05-03 10:45:00,59.5,41.3,30.36,SE,127,4.0,7.0,51,0.00,,,0.00,Wunderground v.1.15,2013-05-03 14:45:00,
2013-05-03 10:50:00,59.6,40.9,30.36,ESE,123,5.0,7.0,50,0.00,,,0.00,Wunderground v.1.15,2013-05-03 14:50:00,
2013-05-03 10:56:00,59.8,41.6,30.36,ESE,123,5.0,8.0,51,0.00,,,0.00,Wunderground v.1.15,2013-05-03 14:56:00,
2013-05-03 11:01:00,59.9,41.7,30.36,ESE,107,5.0,6.0,51,0.00,,,0.00,Wunderground v.1.15,2013-05-03 15:01:00,
2013-05-03 11:06:00,60.1,41.4,30.36,ESE,117,5.0,7.0,50,0.00,,,0.00,Wunderground v.1.15,2013-05-03 15:06:00,
2013-05-03 11:12:00,60.5,42.3,30.36,SSE,159,5.0,7.0,51,0.00,,,0.00,Wunderground v.1.15,2013-05-03 15:12:00,
2013-05-03 11:17:00,60.6,41.3,30.36,SE,132,5.0,10.0,49,0.00,,,0.00,Wunderground v.1.15,2013-05-03 15:17:00,
2013-05-03 11:22:00,60.6,42.4,30.36,SW,223,6.0,8.0,51,0.00,,,0.00,Wunderground v.1.15,2013-05-03 15:22:00,
2013-05-03 11:28:00,60.8,41.5,30.36,ESE,117,5.0,10.0,49,0.00,,,0.00,Wunderground v.1.15,2013-05-03 15:28:00,
2013-05-03 11:33:00,60.9,42.6,30.36,SE,132,6.0,7.0,51,0.00,,,0.00,Wunderground v.1.15,2013-05-03 15:33:00,
2013-05-03 11:38:00,61.1,42.3,30.36,ESE,111,5.0,7.0,50,0.00,,,0.00,Wunderground v.1.15,2013-05-03 15:38:00,
2013-05-03 11:44:00,61.5,43.2,30.36,SE,139,4.0,11.0,51,0.00,,,0.00,Wunderground v.1.15,2013-05-03 15:44:00,
2013-05-03 11:50:00,61.8,43.0,30.36,ESE,105,5.0,5.0,50,0.00,,,0.00,Wunderground v.1.15,2013-05-03 15:50:00,
2013-05-03 11:56:00,61.9,43.0,30.35,SSE,150,5.0,7.0,50,0.00,,,0.00,Wunderground v.1.15,2013-05-03 15:56:00,
2013-05-03 12:02:00,62.1,42.2,30.35,SE,134,4.0,8.0,48,0.00,,,0.00,Wunderground v.1.15,2013-05-03 16:02:00,
2013-05-03 12:08:00,61.9,42.5,30.35,SE,131,5.0,8.0,49,0.00,,,0.00,Wunderground v.1.15,2013-05-03 16:08:00,
2013-05-03 12:14:00,62.2,44.9,30.35,South,175,4.0,8.0,53,0.00,,,0.00,Wunderground v.1.15,2013-05-03 16:14:00,
2013-05-03 12:20:00,62.7,44.3,30.35,SSW,204,4.0,4.0,51,0.00,,,0.00,Wunderground v.1.15,2013-05-03 16:20:00,
2013-05-03 12:26:00,63.3,44.9,30.34,South,188,4.0,5.0,51,0.00,,,0.00,Wunderground v.1.15,2013-05-03 16:26:00,
2013-05-03 12:32:00,63.6,44.1,30.34,East,99,4.0,7.0,49,0.00,,,0.00,Wunderground v.1.15,2013-05-03 16:32:00,
2013-05-03 12:37:00,63.5,42.9,30.34,SE,140,5.0,8.0,47,0.00,,,0.00,Wunderground v.1.15,2013-05-03 16:37:00,
2013-05-03 12:42:00,63.9,44.4,30.34,South,175,4.0,5.0,49,0.00,,,0.00,Wunderground v.1.15,2013-05-03 16:42:00,
2013-05-03 12:48:00,64.1,43.4,30.34,SE,144,4.0,9.0,47,0.00,,,0.00,Wunderground v.1.15,2013-05-03 16:48:00,
2013-05-03 12:53:00,64.6,45.0,30.34,SSE,153,4.0,7.0,49,0.00,,,0.00,Wunderground v.1.15,2013-05-03 16:53:00,
2013-05-03 12:59:00,64.8,45.2,30.33,SSW,196,4.0,7.0,49,0.00,,,0.00,Wunderground v.1.15,2013-05-03 16:59:00,
2013-05-03 13:05:00,65.0,43.7,30.33,ESE,123,4.0,7.0,46,0.00,,,0.00,Wunderground v.1.15,2013-05-03 17:05:00,
2013-05-03 13:11:00,64.5,43.3,30.33,SE,132,5.0,5.0,46,0.00,,,0.00,Wunderground v.1.15,2013-05-03 17:11:00,
2013-05-03 13:17:00,64.5,44.9,30.33,SSE,157,5.0,7.0,49,0.00,,,0.00,Wunderground v.1.15,2013-05-03 17:17:00,
2013-05-03 13:23:00,64.9,44.7,30.33,SSE,162,4.0,8.0,48,0.00,,,0.00,Wunderground v.1.15,2013-05-03 17:23:00,
2013-05-03 13:29:00,65.2,46.1,30.32,SW,220,4.0,8.0,50,0.00,,,0.00,Wunderground v.1.15,2013-05-03 17:29:00,
2013-05-03 13:34:00,65.2,43.9,30.32,SSE,168,4.0,9.0,46,0.00,,,0.00,Wunderground v.1.15,2013-05-03 17:34:00,
2013-05-03 13:40:00,65.0,43.7,30.32,SSE,159,4.0,6.0,46,0.00,,,0.00,Wunderground v.1.15,2013-05-03 17:40:00,
2013-05-03 13:46:00,65.0,43.1,30.32,ESE,106,5.0,8.0,45,0.00,,,0.00,Wunderground v.1.15,2013-05-03 17:46:00,
2013-05-03 13:52:00,64.6,46.1,30.33,SE,146,5.0,5.0,51,0.00,,,0.00,Wunderground v.1.15,2013-05-03 17:52:00,
2013-05-03 13:58:00,65.0,44.8,30.32,SSE,155,4.0,6.0,48,0.00,,,0.00,Wunderground v.1.15,2013-05-03 17:58:00,
2013-05-03 14:04:00,65.7,46.5,30.32,SE,124,3.0,6.0,50,0.00,,,0.00,Wunderground v.1.15,2013-05-03 18:04:00,
2013-05-03 14:09:00,66.0,46.3,30.32,SE,128,3.0,9.0,49,0.00,,,0.00,Wunderground v.1.15,2013-05-03 18:09:00,
2013-05-03 14:15:00,65.7,45.5,30.32,SSE,163,5.0,7.0,48,0.00,,,0.00,Wunderground v.1.15,2013-05-03 18:15:00,
2013-05-03 14:21:00,65.7,45.5,30.32,SW,227,4.0,5.0,48,0.00,,,0.00,Wunderground v.1.15,2013-05-03 18:21:00,
2013-05-03 14:26:00,65.8,46.1,30.32,SSW,192,3.0,6.0,49,0.00,,,0.00,Wunderground v.1.15,2013-05-03 18:26:00,
2013-05-03 14:31:00,65.4,45.7,30.32,SSE,160,5.0,5.0,49,0.00,,,0.00,Wunderground v.1.15,2013-05-03 18:31:00,
2013-05-03 14:37:00,65.4,45.7,30.32,South,174,5.0,8.0,49,0.00,,,0.00,Wunderground v.1.15,2013-05-03 18:37:00,
2013-05-03 14:43:00,65.1,45.5,30.31,WSW,238,6.0,8.0,49,0.00,,,0.00,Wunderground v.1.15,2013-05-03 18:43:00,
2013-05-03 14:49:00,65.1,46.5,30.31,South,180,5.0,8.0,51,0.00,,,0.00,Wunderground v.1.15,2013-05-03 18:49:00,
2013-05-03 14:55:00,65.2,46.1,30.31,SE,142,5.0,10.0,50,0.00,,,0.00,Wunderground v.1.15,2013-05-03 18:55:00,
2013-05-03 15:00:00,65.3,45.1,30.31,SW,217,4.0,8.0,48,0.00,,,0.00,Wunderground v.1.15,2013-05-03 19:00:00,
2013-05-03 15:05:00,65.4,44.6,30.31,South,191,5.0,8.0,47,0.00,,,0.00,Wunderground v.1.15,2013-05-03 19:05:00,
2013-05-03 15:11:00,65.3,45.6,30.31,SSE,159,5.0,5.0,49,0.00,,,0.00,Wunderground v.1.15,2013-05-03 19:11:00,
2013-05-03 15:16:00,65.4,43.5,30.31,ESE,105,5.0,12.0,45,0.00,,,0.00,Wunderground v.1.15,2013-05-03 19:16:00,
2013-05-03 15:21:00,65.3,44.5,30.31,SSW,198,5.0,6.0,47,0.00,,,0.00,Wunderground v.1.15,2013-05-03 19:21:00,
2013-05-03 15:27:00,65.4,42.9,30.30,SSE,148,4.0,6.0,44,0.00,,,0.00,Wunderground v.1.15,2013-05-03 19:27:00,
2013-05-03 15:33:00,65.8,44.4,30.30,SE,126,4.0,7.0,46,0.00,,,0.00,Wunderground v.1.15,2013-05-03 19:33:00,
2013-05-03 15:39:00,65.7,42.6,30.30,SSE,162,5.0,10.0,43,0.00,,,0.00,Wunderground v.1.15,2013-05-03 19:39:00,
2013-05-03 15:44:00,65.4,44.1,30.30,South,176,5.0,6.0,46,0.00,,,0.00,Wunderground v.1.15,2013-05-03 19:44:00,
2013-05-03 15:51:00,65.2,42.1,30.30,SSE,154,5.0,5.0,43,0.00,,,0.00,Wunderground v.1.15,2013-05-03 19:51:00,
2013-05-03 15:56:00,64.7,41.7,30.30,SE,127,5.0,6.0,43,0.00,,,0.00,Wunderground v.1.15,2013-05-03 19:56:00,
2013-05-03 16:01:00,64.7,42.9,30.29,SSE,148,4.0,4.0,45,0.00,,,0.00,Wunderground v.1.15,2013-05-03 20:01:00,
2013-05-03 16:06:00,65.0,41.9,30.29,SSE,153,4.0,8.0,43,0.00,,,0.00,Wunderground v.1.15,2013-05-03 20:06:00,
2013-05-03 16:12:00,64.9,41.9,30.29,SE,132,4.0,4.0,43,0.00,,,0.00,Wunderground v.1.15,2013-05-03 20:12:00,
2013-05-03 16:17:00,64.9,40.6,30.29,South,169,3.0,5.0,41,0.00,,,0.00,Wunderground v.1.15,2013-05-03 20:17:00,
2013-05-03 16:23:00,64.6,40.4,30.29,SSE,159,4.0,5.0,41,0.00,,,0.00,Wunderground v.1.15,2013-05-03 20:23:00,
2013-05-03 16:28:00,64.6,40.4,30.28,SSW,209,4.0,5.0,41,0.00,,,0.00,Wunderground v.1.15,2013-05-03 20:28:00,
2013-05-03 16:34:00,64.6,40.4,30.29,South,169,3.0,4.0,41,0.00,,,0.00,Wunderground v.1.15,2013-05-03 20:34:00,
2013-05-03 16:40:00,64.2,40.6,30.29,South,171,3.0,7.0,42,0.00,,,0.00,Wunderground v.1.15,2013-05-03 20:40:00,
2013-05-03 16:46:00,64.1,40.5,30.29,SE,145,4.0,9.0,42,0.00,,,0.00,Wunderground v.1.15,2013-05-03 20:46:00,
2013-05-03 16:51:00,64.1,39.9,30.28,SSE,162,4.0,4.0,41,0.00,,,0.00,Wunderground v.1.15,2013-05-03 20:51:00,
2013-05-03 16:56:00,64.1,40.5,30.29,South,175,5.0,11.0,42,0.00,,,0.00,Wunderground v.1.15,2013-05-03 20:56:00,
2013-05-03 17:02:00,64.4,40.8,30.29,South,169,4.0,5.0,42,0.00,,,0.00,Wunderground v.1.15,2013-05-03 21:02:00,
2013-05-03 17:08:00,64.9,43.0,30.29,South,188,3.0,7.0,45,0.00,,,0.00,Wunderground v.1.15,2013-05-03 21:08:00,
2013-05-03 17:13:00,64.8,41.2,30.29,SE,138,3.0,4.0,42,0.00,,,0.00,Wunderground v.1.15,2013-05-03 21:13:00,
2013-05-03 17:19:00,64.5,40.9,30.28,SSE,159,4.0,7.0,42,0.00,,,0.00,Wunderground v.1.15,2013-05-03 21:19:00,
2013-05-03 17:25:00,65.0,41.3,30.28,SSE,148,4.0,8.0,42,0.00,,,0.00,Wunderground v.1.15,2013-05-03 21:25:00,
2013-05-03 17:31:00,65.7,42.0,30.28,SSE,153,3.0,4.0,42,0.00,,,0.00,Wunderground v.1.15,2013-05-03 21:31:00,
2013-05-03 17:37:00,66.1,42.9,30.29,SSE,165,3.0,8.0,43,0.00,,,0.00,Wunderground v.1.15,2013-05-03 21:37:00,
2013-05-03 17:43:00,66.0,42.2,30.28,SE,146,3.0,4.0,42,0.00,,,0.00,Wunderground v.1.15,2013-05-03 21:43:00,
2013-05-03 17:49:00,65.8,40.8,30.28,South,189,4.0,9.0,40,0.00,,,0.00,Wunderground v.1.15,2013-05-03 21:49:00,
2013-05-03 17:54:00,65.3,41.6,30.28,SW,231,5.0,5.0,42,0.00,,,0.00,Wunderground v.1.15,2013-05-03 21:54:00,
2013-05-03 17:59:00,65.0,44.3,30.28,SW,225,4.0,6.0,47,0.00,,,0.00,Wunderground v.1.15,2013-05-03 21:59:00,
2013-05-03 18:05:00,64.8,45.7,30.28,SSW,198,4.0,7.0,50,0.00,,,0.00,Wunderground v.1.15,2013-05-03 22:05:00,
2013-05-03 18:10:00,64.3,45.3,30.28,SSW,206,4.0,7.0,50,0.00,,,0.00,Wunderground v.1.15,2013-05-03 22:10:00,
2013-05-03 18:15:00,63.8,45.8,30.28,WSW,248,4.0,7.0,52,0.00,,,0.00,Wunderground v.1.15,2013-05-03 22:15:00,
2013-05-03 18:21:00,63.1,45.2,30.28,SW,218,4.0,4.0,52,0.00,,,0.00,Wunderground v.1.15,2013-05-03 22:21:00,
2013-05-03 18:27:00,62.6,45.7,30.28,WSW,241,4.0,5.0,54,0.00,,,0.00,Wunderground v.1.15,2013-05-03 22:27:00,
2013-05-03 18:33:00,62.3,45.4,30.28,WNW,287,5.0,10.0,54,0.00,,,0.00,Wunderground v.1.15,2013-05-03 22:33:00,
2013-05-03 18:38:00,61.4,44.6,30.28,SW,230,6.0,10.0,54,0.00,,,0.00,Wunderground v.1.15,2013-05-03 22:38:00,
2013-05-03 18:43:00,61.2,44.9,30.28,WSW,239,5.0,7.0,55,0.00,,,0.00,Wunderground v.1.15,2013-05-03 22:43:00,
2013-05-03 18:49:00,60.7,44.9,30.28,SSW,198,5.0,8.0,56,0.00,,,0.00,Wunderground v.1.15,2013-05-03 22:49:00,
2013-05-03 18:54:00,60.4,45.1,30.29,SSE,166,5.0,7.0,57,0.00,,,0.00,Wunderground v.1.15,2013-05-03 22:54:00,
2013-05-03 19:00:00,60.4,45.1,30.29,WSW,244,4.0,4.0,57,0.00,,,0.00,Wunderground v.1.15,2013-05-03 23:00:00,
2013-05-03 19:05:00,60.3,44.5,30.29,SSW,213,4.0,7.0,56,0.00,,,0.00,Wunderground v.1.15,2013-05-03 23:05:00,
2013-05-03 19:11:00,59.9,44.2,30.29,WSW,253,4.0,4.0,56,0.00,,,0.00,Wunderground v.1.15,2013-05-03 23:11:00,
2013-05-03 19:17:00,59.7,44.4,30.29,SSW,205,4.0,8.0,57,0.00,,,0.00,Wunderground v.1.15,2013-05-03 23:17:00,
2013-05-03 19:22:00,59.2,44.4,30.30,SSW,202,4.0,4.0,58,0.00,,,0.00,Wunderground v.1.15,2013-05-03 23:22:00,
2013-05-03 19:28:00,58.6,43.9,30.30,SW,229,5.0,8.0,58,0.00,,,0.00,Wunderground v.1.15,2013-05-03 23:28:00,
2013-05-03 19:34:00,58.1,43.8,30.30,SW,218,5.0,7.0,59,0.00,,,0.00,Wunderground v.1.15,2013-05-03 23:34:00,
2013-05-03 19:40:00,57.6,43.8,30.30,WSW,238,5.0,5.0,60,0.00,,,0.00,Wunderground v.1.15,2013-05-03 23:40:00,
2013-05-03 19:45:00,57.1,44.2,30.30,SW,217,4.0,8.0,62,0.00,,,0.00,Wunderground v.1.15,2013-05-03 23:45:00,
2013-05-03 19:50:00,56.5,43.6,30.30,SW,215,4.0,5.0,62,0.00,,,0.00,Wunderground v.1.15,2013-05-03 23:50:00,
2013-05-03 19:56:00,55.8,43.8,30.30,SW,225,5.0,6.0,64,0.00,,,0.00,Wunderground v.1.15,2013-05-03 23:56:00,
2013-05-03 20:02:00,55.3,43.7,30.30,SW,235,4.0,4.0,65,0.00,,,0.00,Wunderground v.1.15,2013-05-04 00:02:00,
2013-05-03 20:08:00,54.9,43.7,30.31,SW,234,3.0,5.0,66,0.00,,,0.00,Wunderground v.1.15,2013-05-04 00:08:00,
2013-05-03 20:13:00,54.5,43.4,30.31,SSW,196,3.0,8.0,66,0.00,,,0.00,Wunderground v.1.15,2013-05-04 00:13:00,
2013-05-03 20:19:00,54.0,43.3,30.31,WSW,239,5.0,8.0,67,0.00,,,0.00,Wunderground v.1.15,2013-05-04 00:19:00,
2013-05-03 20:25:00,53.5,43.6,30.31,SW,217,4.0,5.0,69,0.00,,,0.00,Wunderground v.1.15,2013-05-04 00:25:00,
2013-05-03 20:31:00,53.1,43.2,30.31,SSW,195,4.0,7.0,69,0.00,,,0.00,Wunderground v.1.15,2013-05-04 00:31:00,
2013-05-03 20:37:00,52.7,43.2,30.31,SW,234,3.0,7.0,70,0.00,,,0.00,Wunderground v.1.15,2013-05-04 00:37:00,
2013-05-03 20:43:00,52.3,42.8,30.31,SW,225,4.0,4.0,70,0.00,,,0.00,Wunderground v.1.15,2013-05-04 00:43:00,
2013-05-03 20:49:00,52.0,42.9,30.31,SW,235,4.0,5.0,71,0.00,,,0.00,Wunderground v.1.15,2013-05-04 00:49:00,
2013-05-03 20:55:00,51.6,42.5,30.31,SW,227,3.0,4.0,71,0.00,,,0.00,Wunderground v.1.15,2013-05-04 00:55:00,
2013-05-03 21:00:00,51.4,42.7,30.32,SW,223,3.0,3.0,72,0.00,,,0.00,Wunderground v.1.15,2013-05-04 01:00:00,
2013-05-03 21:05:00,51.1,42.4,30.32,SW,221,2.0,5.0,72,0.00,,,0.00,Wunderground v.1.15,2013-05-04 01:05:00,
2013-05-03 21:11:00,50.8,42.5,30.32,SW,221,3.0,3.0,73,0.00,,,0.00,Wunderground v.1.15,2013-05-04 01:11:00,
2013-05-03 21:17:00,50.6,42.3,30.32,WSW,237,3.0,3.0,73,0.00,,,0.00,Wunderground v.1.15,2013-05-04 01:17:00,
2013-05-03 21:22:00,50.5,42.2,30.32,WSW,239,3.0,3.0,73,0.00,,,0.00,Wunderground v.1.15,2013-05-04 01:22:00,
2013-05-03 21:27:00,50.3,42.0,30.32,SW,219,3.0,4.0,73,0.00,,,0.00,Wunderground v.1.15,2013-05-04 01:27:00,
2013-05-03 21:33:00,50.0,41.7,30.32,SW,231,3.0,4.0,73,0.00,,,0.00,Wunderground v.1.15,2013-05-04 01:33:00,
2013-05-03 21:39:00,49.9,41.9,30.32,SW,229,3.0,4.0,74,0.00,,,0.00,Wunderground v.1.15,2013-05-04 01:39:00,
2013-05-03 21:45:00,49.7,41.7,30.32,WSW,237,3.0,5.0,74,0.00,,,0.00,Wunderground v.1.15,2013-05-04 01:45:00,
2013-05-03 21:51:00,49.5,41.6,30.32,SW,225,3.0,4.0,74,0.00,,,0.00,Wunderground v.1.15,2013-05-04 01:51:00,
2013-05-03 21:56:00,49.4,41.8,30.32,SW,234,3.0,4.0,75,0.00,,,0.00,Wunderground v.1.15,2013-05-04 01:56:00,
2013-05-03 22:01:00,49.2,41.6,30.32,SW,234,3.0,5.0,75,0.00,,,0.00,Wunderground v.1.15,2013-05-04 02:01:00,
2013-05-03 22:07:00,49.1,41.5,30.32,SW,234,3.0,5.0,75,0.00,,,0.00,Wunderground v.1.15,2013-05-04 02:07:00,
2013-05-03 22:12:00,49.0,41.8,30.32,SW,236,3.0,3.0,76,0.00,,,0.00,Wunderground v.1.15,2013-05-04 02:12:00,
2013-05-03 22:18:00,48.9,41.7,30.32,SW,233,3.0,4.0,76,0.00,,,0.00,Wunderground v.1.15,2013-05-04 02:18:00,
2013-05-03 22:24:00,48.8,41.9,30.32,SW,235,3.0,4.0,77,0.00,,,0.00,Wunderground v.1.15,2013-05-04 02:24:00,
2013-05-03 22:29:00,48.7,41.8,30.32,WSW,255,3.0,8.0,77,0.00,,,0.00,Wunderground v.1.15,2013-05-04 02:29:00,
2013-05-03 22:34:00,48.7,41.8,30.32,SW,225,4.0,6.0,77,0.00,,,0.00,Wunderground v.1.15,2013-05-04 02:34:00,
2013-05-03 22:40:00,48.7,41.8,30.32,SW,223,4.0,4.0,77,0.00,,,0.00,Wunderground v.1.15,2013-05-04 02:40:00,
2013-05-03 22:46:00,48.6,42.0,30.32,SSW,212,3.0,5.0,78,0.00,,,0.00,Wunderground v.1.15,2013-05-04 02:46:00,
2013-05-03 22:52:00,48.5,42.0,30.32,SW,235,3.0,3.0,78,0.00,,,0.00,Wunderground v.1.15,2013-05-04 02:52:00,
2013-05-03 22:57:00,48.3,41.8,30.32,SW,223,3.0,3.0,78,0.00,,,0.00,Wunderground v.1.15,2013-05-04 02:57:00,
2013-05-03 23:03:00,48.2,41.7,30.32,SW,221,2.0,4.0,78,0.00,,,0.00,Wunderground v.1.15,2013-05-04 03:03:00,
2013-05-03 23:09:00,48.0,41.8,30.32,SW,219,2.0,4.0,79,0.00,,,0.00,Wunderground v.1.15,2013-05-04 03:09:00,
2013-05-03 23:15:00,47.8,41.6,30.31,SSW,205,2.0,3.0,79,0.00,,,0.00,Wunderground v.1.15,2013-05-04 03:15:00,
2013-05-03 23:20:00,47.6,41.7,30.31,SSW,205,1.0,1.0,80,0.00,,,0.00,Wunderground v.1.15,2013-05-04 03:20:00,
2013-05-03 23:26:00,47.4,41.5,30.31,SW,223,2.0,5.0,80,0.00,,,0.00,Wunderground v.1.15,2013-05-04 03:26:00,
2013-05-03 23:31:00,47.3,41.8,30.31,WSW,238,2.0,4.0,81,0.00,,,0.00,Wunderground v.1.15,2013-05-04 03:31:00,
2013-05-03 23:37:00,47.2,41.7,30.31,SW,219,2.0,4.0,81,0.00,,,0.00,Wunderground v.1.15,2013-05-04 03:37:00,
2013-05-03 23:43:00,47.1,41.9,30.31,SW,227,3.0,5.0,82,0.00,,,0.00,Wunderground v.1.15,2013-05-04 03:43:00,
2013-05-03 23:49:00,46.9,41.7,30.31,SW,234,2.0,5.0,82,0.00,,,0.00,Wunderground v.1.15,2013-05-04 03:49:00,
2013-05-03 23:55:00,46.8,41.6,30.31,SSW,207,2.0,4.0,82,0.00,,,0.00,Wunderground v.1.15,2013-05-04 03:55:00,